AAL2562 KDFW-KPSP

Flight info

Callsign AAL2562
Flight time 2h 32m
Altitude 34000
Route WSTEX2 CIKAN BGS KA12U ITUCO KA18O CURIV RDBUL1
Aircraft A321/M-SDE3FGHIRWY/LB1

Departure

Time 2026-05-08 16:17
Airport Dallas Fort Worth International Airport (KDFW)

Arrival

Time 2026-05-08 18:50
Airport Palm Springs International Airport (KPSP)
Time Latitude Longitude Altitude Speed Heading
2026-05-08 15:50 32.89296 -97.04274 598 ft 0 kts 84°
2026-05-08 16:04 32.89295 -97.04299 598 ft 4 kts 106°
2026-05-08 16:04 32.89303 -97.04321 598 ft 4 kts 105°
2026-05-08 16:04 32.89297 -97.04340 598 ft 3 kts 46°
2026-05-08 16:04 32.89281 -97.04360 598 ft 2 kts 46°
2026-05-08 16:05 32.89281 -97.04361 598 ft 0 kts 46°
2026-05-08 16:08 32.89283 -97.04358 598 ft 1 kts 46°
2026-05-08 16:08 32.89302 -97.04351 598 ft 5 kts
2026-05-08 16:09 32.89347 -97.04354 598 ft 9 kts 353°
2026-05-08 16:09 32.89412 -97.04376 598 ft 10 kts 316°
2026-05-08 16:09 32.89427 -97.04459 598 ft 11 kts 269°
2026-05-08 16:09 32.89427 -97.04551 598 ft 12 kts 270°
2026-05-08 16:10 32.89428 -97.04649 598 ft 12 kts 271°
2026-05-08 16:10 32.89456 -97.04752 595 ft 13 kts 322°
2026-05-08 16:10 32.89542 -97.04765 597 ft 12 kts
2026-05-08 16:10 32.89624 -97.04765 598 ft 12 kts 360°
2026-05-08 16:11 32.89709 -97.04764 598 ft 13 kts
2026-05-08 16:11 32.89803 -97.04764 597 ft 14 kts
2026-05-08 16:11 32.89900 -97.04763 598 ft 14 kts 360°
2026-05-08 16:11 32.89996 -97.04763 599 ft 14 kts
2026-05-08 16:12 32.90095 -97.04763 598 ft 15 kts
2026-05-08 16:12 32.90206 -97.04762 597 ft 16 kts
2026-05-08 16:12 32.90321 -97.04761 597 ft 17 kts
2026-05-08 16:12 32.90439 -97.04761 597 ft 17 kts
2026-05-08 16:13 32.90559 -97.04760 597 ft 18 kts
2026-05-08 16:13 32.90684 -97.04760 597 ft 18 kts 360°
2026-05-08 16:13 32.90810 -97.04760 598 ft 18 kts
2026-05-08 16:13 32.90926 -97.04759 603 ft 15 kts
2026-05-08 16:14 32.91023 -97.04776 614 ft 14 kts 344°
2026-05-08 16:14 32.91116 -97.04793 607 ft 13 kts 359°
2026-05-08 16:14 32.91206 -97.04793 617 ft 13 kts
2026-05-08 16:14 32.91302 -97.04792 617 ft 15 kts
2026-05-08 16:15 32.91409 -97.04792 621 ft 16 kts
2026-05-08 16:15 32.91523 -97.04793 614 ft 15 kts 352°
2026-05-08 16:15 32.91566 -97.04882 611 ft 13 kts 271°
2026-05-08 16:15 32.91565 -97.04988 612 ft 13 kts 270°
2026-05-08 16:16 32.91554 -97.05068 614 ft 6 kts 215°
2026-05-08 16:16 32.91528 -97.05073 618 ft 1 kts 178°
2026-05-08 16:16 32.91498 -97.05073 618 ft 18 kts 180°
2026-05-08 16:16 32.91126 -97.05074 613 ft 87 kts 180°
2026-05-08 16:17 32.90313 -97.05078 598 ft 143 kts 180°
2026-05-08 16:17 32.89588 -97.05083 618 ft 171 kts 180°
2026-05-08 16:17 32.87963 -97.05099 1351 ft 174 kts 179°
2026-05-08 16:17 32.86765 -97.05105 1992 ft 174 kts 180°
2026-05-08 16:18 32.85529 -97.05109 2470 ft 183 kts 180°
2026-05-08 16:18 32.84183 -97.05116 2651 ft 203 kts 181°
2026-05-08 16:18 32.82680 -97.05137 2782 ft 228 kts 181°
2026-05-08 16:18 32.81028 -97.05173 3198 ft 241 kts 182°
2026-05-08 16:19 32.79350 -97.05212 3872 ft 246 kts 183°
2026-05-08 16:19 32.77618 -97.05256 4519 ft 251 kts 184°
2026-05-08 16:19 32.75843 -97.05303 5113 ft 257 kts 185°
2026-05-08 16:19 32.74036 -97.05351 5762 ft 261 kts 185°
2026-05-08 16:20 32.72294 -97.05767 6407 ft 258 kts 208°
2026-05-08 16:20 32.70867 -97.07030 7006 ft 258 kts 232°
2026-05-08 16:20 32.70053 -97.08919 7486 ft 264 kts 256°
2026-05-08 16:20 32.69629 -97.11067 8062 ft 267 kts 257°
2026-05-08 16:21 32.69210 -97.13228 8750 ft 269 kts 259°
2026-05-08 16:21 32.69069 -97.15454 9411 ft 272 kts 268°
2026-05-08 16:21 32.69033 -97.17709 10052 ft 273 kts 268°
2026-05-08 16:21 32.68989 -97.19988 10334 ft 289 kts 268°
2026-05-08 16:22 32.68936 -97.22473 10457 ft 310 kts 268°
2026-05-08 16:22 32.68878 -97.25120 10662 ft 326 kts 268°
2026-05-08 16:22 32.68819 -97.27807 11146 ft 331 kts 268°
2026-05-08 16:22 32.68761 -97.30552 11744 ft 332 kts 268°
2026-05-08 16:23 32.68705 -97.33316 12364 ft 333 kts 268°
2026-05-08 16:23 32.68648 -97.36048 12974 ft 335 kts 268°
2026-05-08 16:23 32.68589 -97.38825 13601 ft 336 kts 268°
2026-05-08 16:23 32.68528 -97.41616 14178 ft 338 kts 268°
2026-05-08 16:24 32.68467 -97.44422 14733 ft 340 kts 268°
2026-05-08 16:24 32.68406 -97.47204 15262 ft 342 kts 268°
2026-05-08 16:24 32.68345 -97.50056 15812 ft 345 kts 268°
2026-05-08 16:24 32.68283 -97.52921 16319 ft 347 kts 267°
2026-05-08 16:25 32.68218 -97.55765 16847 ft 350 kts 267°
2026-05-08 16:25 32.68151 -97.58676 17395 ft 353 kts 267°
2026-05-08 16:25 32.68083 -97.61603 17903 ft 356 kts 266°
2026-05-08 16:25 32.68013 -97.64567 18386 ft 359 kts 266°
2026-05-08 16:26 32.67942 -97.67514 18829 ft 361 kts 266°
2026-05-08 16:26 32.67871 -97.70509 19304 ft 363 kts 266°
2026-05-08 16:26 32.67797 -97.73522 19793 ft 364 kts 266°
2026-05-08 16:26 32.67652 -97.76496 20294 ft 365 kts 264°
2026-05-08 16:27 32.67431 -97.79510 20793 ft 366 kts 263°
2026-05-08 16:27 32.67173 -97.82529 21286 ft 367 kts 262°
2026-05-08 16:27 32.66907 -97.85510 21757 ft 368 kts 262°
2026-05-08 16:27 32.66643 -97.88550 22217 ft 369 kts 263°
2026-05-08 16:28 32.66390 -97.91601 22669 ft 371 kts 263°
2026-05-08 16:28 32.66148 -97.94622 23107 ft 372 kts 263°
2026-05-08 16:28 32.65906 -97.97695 23537 ft 373 kts 263°
2026-05-08 16:28 32.65666 -98.00784 23836 ft 377 kts 263°
2026-05-08 16:29 32.65424 -98.03896 24160 ft 379 kts 263°
2026-05-08 16:29 32.65181 -98.06985 24502 ft 380 kts 263°
2026-05-08 16:29 32.64934 -98.10123 24856 ft 381 kts 263°
2026-05-08 16:29 32.64687 -98.13225 25215 ft 381 kts 263°
2026-05-08 16:30 32.64432 -98.16375 25563 ft 382 kts 263°
2026-05-08 16:30 32.64173 -98.19532 25913 ft 383 kts 263°
2026-05-08 16:30 32.63916 -98.22687 26260 ft 384 kts 263°
2026-05-08 16:30 32.63663 -98.25807 26591 ft 385 kts 263°
2026-05-08 16:31 32.63406 -98.28983 26928 ft 385 kts 263°
2026-05-08 16:31 32.63149 -98.32164 27255 ft 386 kts 262°
2026-05-08 16:31 32.62893 -98.35306 27569 ft 388 kts 263°
2026-05-08 16:31 32.62629 -98.38516 27792 ft 391 kts 263°
2026-05-08 16:32 32.62365 -98.41738 28052 ft 393 kts 263°
2026-05-08 16:32 32.62098 -98.44981 28336 ft 394 kts 263°
2026-05-08 16:32 32.61831 -98.48199 28621 ft 396 kts 263°
2026-05-08 16:32 32.61562 -98.51467 28930 ft 397 kts 263°
2026-05-08 16:33 32.61294 -98.54702 29233 ft 398 kts 263°
2026-05-08 16:33 32.61020 -98.57977 29540 ft 399 kts 262°
2026-05-08 16:33 32.60747 -98.61234 29834 ft 400 kts 262°
2026-05-08 16:33 32.60471 -98.64532 30153 ft 400 kts 262°
2026-05-08 16:34 32.60197 -98.67816 30508 ft 398 kts 262°
2026-05-08 16:34 32.59925 -98.71045 30856 ft 396 kts 262°
2026-05-08 16:34 32.59648 -98.74315 31157 ft 396 kts 262°
2026-05-08 16:34 32.59370 -98.77572 31416 ft 397 kts 262°
2026-05-08 16:35 32.59097 -98.80793 31707 ft 396 kts 262°
2026-05-08 16:35 32.58822 -98.84047 32029 ft 395 kts 262°
2026-05-08 16:35 32.58545 -98.87292 32359 ft 393 kts 262°
2026-05-08 16:35 32.58272 -98.90478 32689 ft 392 kts 262°
2026-05-08 16:36 32.57993 -98.93700 33001 ft 390 kts 262°
2026-05-08 16:36 32.57715 -98.96898 33318 ft 389 kts 262°
2026-05-08 16:36 32.57437 -99.00092 33630 ft 387 kts 262°
2026-05-08 16:36 32.57164 -99.03229 33911 ft 387 kts 262°
2026-05-08 16:37 32.56612 -99.09539 33971 ft 382 kts 262°
2026-05-08 16:37 32.56065 -99.15811 33959 ft 385 kts 262°
2026-05-08 16:38 32.55509 -99.22111 33949 ft 385 kts 262°
2026-05-08 16:38 32.54949 -99.28441 33955 ft 385 kts 262°
2026-05-08 16:39 32.54398 -99.34747 33950 ft 385 kts 262°
2026-05-08 16:39 32.53995 -99.41072 33975 ft 386 kts 264°
2026-05-08 16:40 32.53660 -99.47433 33988 ft 386 kts 264°
2026-05-08 16:40 32.53300 -99.53806 33998 ft 387 kts 263°
2026-05-08 16:41 32.52909 -99.60165 34012 ft 387 kts 263°
2026-05-08 16:42 32.52317 -99.69713 34023 ft 388 kts 263°
2026-05-08 16:42 32.51924 -99.76069 34018 ft 388 kts 263°
2026-05-08 16:43 32.51525 -99.82461 34008 ft 388 kts 263°
2026-05-08 16:43 32.51120 -99.88826 34012 ft 389 kts 263°
2026-05-08 16:44 32.50712 -99.95202 34000 ft 389 kts 263°
2026-05-08 16:44 32.50304 -100.01625 33997 ft 389 kts 263°
2026-05-08 16:45 32.49896 -100.07984 33979 ft 389 kts 263°
2026-05-08 16:45 32.49547 -100.13329 33960 ft 389 kts 263°
2026-05-08 16:46 32.49131 -100.19707 33954 ft 389 kts 263°
2026-05-08 16:46 32.48707 -100.26110 33953 ft 389 kts 263°
2026-05-08 16:47 32.48278 -100.32470 34051 ft 389 kts 263°
2026-05-08 16:47 32.47791 -100.38864 34068 ft 388 kts 262°
2026-05-08 16:48 32.47267 -100.45223 34066 ft 388 kts 262°
2026-05-08 16:48 32.46739 -100.51561 34058 ft 388 kts 262°
2026-05-08 16:49 32.46224 -100.57938 34068 ft 388 kts 262°
2026-05-08 16:49 32.45713 -100.64274 34045 ft 387 kts 262°
2026-05-08 16:50 32.45198 -100.70606 34015 ft 387 kts 262°
2026-05-08 16:50 32.44674 -100.76959 33991 ft 386 kts 262°
2026-05-08 16:51 32.44146 -100.83288 33973 ft 386 kts 262°
2026-05-08 16:51 32.43617 -100.89582 33974 ft 386 kts 262°
2026-05-08 16:52 32.43086 -100.95925 33973 ft 386 kts 262°
2026-05-08 16:52 32.42553 -101.02222 33967 ft 387 kts 262°
2026-05-08 16:53 32.41746 -101.11733 33951 ft 386 kts 262°
2026-05-08 16:53 32.41209 -101.18046 33936 ft 386 kts 262°
2026-05-08 16:54 32.40665 -101.24361 33933 ft 386 kts 261°
2026-05-08 16:54 32.40112 -101.30693 33944 ft 386 kts 261°
2026-05-08 16:55 32.39562 -101.37009 33911 ft 388 kts 262°
2026-05-08 16:55 32.39003 -101.43376 33899 ft 391 kts 262°
2026-05-08 16:56 32.38432 -101.49822 33899 ft 392 kts 262°
2026-05-08 16:56 32.37972 -101.56250 33903 ft 394 kts 263°
2026-05-08 16:57 32.37565 -101.62684 33907 ft 394 kts 264°
2026-05-08 16:57 32.37149 -101.69161 33914 ft 395 kts 263°
2026-05-08 16:58 32.36706 -101.75666 33904 ft 396 kts 263°
2026-05-08 16:58 32.36248 -101.82165 33903 ft 398 kts 263°
2026-05-08 16:59 32.35783 -101.88669 33904 ft 398 kts 263°
2026-05-08 16:59 32.35316 -101.95184 33907 ft 399 kts 263°
2026-05-08 17:00 32.34845 -102.01724 33910 ft 400 kts 263°
2026-05-08 17:00 32.34372 -102.08290 33931 ft 400 kts 263°
2026-05-08 17:01 32.33901 -102.14835 33929 ft 402 kts 263°
2026-05-08 17:01 32.33419 -102.21447 33907 ft 403 kts 263°
2026-05-08 17:02 32.32940 -102.28031 33911 ft 404 kts 263°
2026-05-08 17:02 32.32455 -102.34671 33920 ft 404 kts 263°
2026-05-08 17:03 32.31967 -102.41273 33931 ft 404 kts 263°
2026-05-08 17:03 32.31469 -102.47933 33911 ft 406 kts 263°
2026-05-08 17:04 32.30960 -102.54564 33904 ft 408 kts 263°
2026-05-08 17:04 32.30448 -102.61276 33906 ft 409 kts 263°
2026-05-08 17:05 32.29936 -102.67960 33913 ft 409 kts 263°
2026-05-08 17:05 32.29418 -102.74661 33918 ft 410 kts 263°
2026-05-08 17:06 32.28901 -102.81364 33907 ft 410 kts 263°
2026-05-08 17:06 32.28378 -102.88088 33899 ft 412 kts 263°
2026-05-08 17:07 32.27851 -102.94862 33900 ft 413 kts 263°
2026-05-08 17:07 32.27322 -103.01607 33903 ft 414 kts 263°
2026-05-08 17:08 32.26780 -103.08367 33903 ft 415 kts 263°
2026-05-08 17:08 32.26232 -103.15157 33911 ft 415 kts 263°
2026-05-08 17:09 32.25678 -103.21968 33912 ft 416 kts 262°
2026-05-08 17:09 32.25122 -103.28760 33914 ft 416 kts 262°
2026-05-08 17:10 32.24566 -103.35555 33915 ft 417 kts 262°
2026-05-08 17:10 32.24007 -103.42374 33918 ft 417 kts 262°
2026-05-08 17:11 32.23439 -103.49187 33919 ft 417 kts 262°
2026-05-08 17:11 32.22861 -103.56019 33913 ft 418 kts 262°
2026-05-08 17:12 32.22285 -103.62833 33908 ft 419 kts 262°
2026-05-08 17:12 32.21705 -103.69706 33910 ft 420 kts 262°
2026-05-08 17:13 32.21124 -103.76547 33912 ft 420 kts 262°
2026-05-08 17:13 32.20539 -103.83432 33915 ft 421 kts 262°
2026-05-08 17:14 32.19947 -103.90292 33914 ft 422 kts 262°
2026-05-08 17:14 32.19341 -103.97188 33900 ft 423 kts 262°
2026-05-08 17:15 32.18736 -104.04084 33900 ft 424 kts 262°
2026-05-08 17:15 32.18124 -104.11027 33993 ft 425 kts 262°
2026-05-08 17:16 32.17513 -104.17948 34013 ft 425 kts 262°
2026-05-08 17:16 32.16898 -104.24875 34016 ft 426 kts 262°
2026-05-08 17:17 32.16271 -104.31856 33990 ft 428 kts 262°
2026-05-08 17:17 32.15641 -104.38824 33968 ft 429 kts 262°
2026-05-08 17:18 32.15006 -104.45823 33948 ft 430 kts 262°
2026-05-08 17:18 32.14370 -104.52857 33923 ft 430 kts 262°
2026-05-08 17:19 32.13726 -104.59857 33889 ft 430 kts 262°
2026-05-08 17:19 32.13068 -104.66898 33881 ft 430 kts 262°
2026-05-08 17:20 32.12417 -104.73888 33885 ft 431 kts 262°
2026-05-08 17:20 32.11762 -104.80946 33887 ft 430 kts 262°
2026-05-08 17:21 32.11106 -104.87948 33887 ft 430 kts 262°
2026-05-08 17:21 32.10440 -104.94941 33886 ft 431 kts 262°
2026-05-08 17:22 32.09759 -105.02011 33862 ft 433 kts 262°
2026-05-08 17:22 32.09083 -105.09073 33858 ft 434 kts 262°
2026-05-08 17:23 32.08404 -105.16118 33855 ft 435 kts 262°
2026-05-08 17:23 32.07717 -105.23200 33861 ft 436 kts 262°
2026-05-08 17:24 32.07023 -105.30307 33871 ft 436 kts 263°
2026-05-08 17:24 32.06319 -105.37454 33845 ft 439 kts 263°
2026-05-08 17:25 32.05613 -105.44593 33844 ft 441 kts 263°
2026-05-08 17:25 32.04902 -105.51811 33846 ft 442 kts 263°
2026-05-08 17:26 32.04182 -105.58986 33865 ft 443 kts 263°
2026-05-08 17:26 32.03453 -105.66165 33870 ft 443 kts 264°
2026-05-08 17:27 32.02721 -105.73424 33850 ft 445 kts 264°
2026-05-08 17:27 32.01981 -105.80711 33857 ft 447 kts 264°
2026-05-08 17:28 32.01249 -105.87975 33860 ft 449 kts 264°
2026-05-08 17:28 32.00501 -105.95257 33872 ft 450 kts 264°
2026-05-08 17:29 32.00349 -106.02617 33884 ft 448 kts 280°
2026-05-08 17:29 32.01310 -106.09846 33899 ft 450 kts 281°
2026-05-08 17:30 32.02268 -106.17137 33922 ft 451 kts 281°
2026-05-08 17:30 32.03226 -106.24495 33951 ft 453 kts 281°
2026-05-08 17:31 32.04171 -106.31797 33967 ft 453 kts 281°
2026-05-08 17:31 32.05129 -106.39172 33962 ft 454 kts 282°
2026-05-08 17:32 32.06074 -106.46535 33949 ft 455 kts 282°
2026-05-08 17:32 32.07019 -106.53877 33952 ft 456 kts 282°
2026-05-08 17:33 32.07965 -106.61278 33978 ft 456 kts 282°
2026-05-08 17:33 32.08906 -106.68646 33987 ft 456 kts 282°
2026-05-08 17:34 32.09849 -106.76076 33968 ft 456 kts 282°
2026-05-08 17:34 32.10778 -106.83446 33950 ft 456 kts 282°
2026-05-08 17:35 32.11703 -106.90883 34029 ft 456 kts 282°
2026-05-08 17:35 32.12621 -106.98266 34032 ft 456 kts 282°
2026-05-08 17:36 32.13543 -107.05647 34009 ft 456 kts 282°
2026-05-08 17:36 32.14311 -107.11830 33988 ft 456 kts 282°
2026-05-08 17:37 32.15214 -107.19235 33952 ft 456 kts 282°
2026-05-08 17:37 32.16117 -107.26671 33912 ft 456 kts 282°
2026-05-08 17:38 32.17019 -107.34059 33910 ft 456 kts 282°
2026-05-08 17:38 32.17923 -107.41488 33941 ft 456 kts 283°
2026-05-08 17:39 32.18812 -107.48887 33998 ft 456 kts 283°
2026-05-08 17:39 32.19703 -107.56322 34046 ft 456 kts 283°
2026-05-08 17:40 32.20595 -107.63713 34094 ft 456 kts 283°
2026-05-08 17:40 32.21479 -107.71107 34096 ft 455 kts 282°
2026-05-08 17:41 32.22344 -107.78493 34084 ft 455 kts 283°
2026-05-08 17:41 32.22779 -107.82210 33885 ft 455 kts 283°
2026-05-08 17:41 32.23213 -107.85920 33884 ft 455 kts 283°
2026-05-08 17:42 32.24075 -107.93291 33886 ft 455 kts 283°
2026-05-08 17:42 32.24946 -108.00724 33890 ft 455 kts 283°
2026-05-08 17:43 32.25799 -108.08111 33900 ft 455 kts 283°
2026-05-08 17:43 32.26650 -108.15495 33902 ft 455 kts 283°
2026-05-08 17:44 32.27503 -108.22925 33915 ft 455 kts 283°
2026-05-08 17:44 32.28344 -108.30309 33936 ft 455 kts 283°
2026-05-08 17:45 32.29182 -108.37749 33980 ft 455 kts 283°
2026-05-08 17:45 32.30013 -108.45140 34020 ft 455 kts 283°
2026-05-08 17:46 32.30844 -108.52575 34077 ft 454 kts 283°
2026-05-08 17:46 32.31672 -108.59955 34113 ft 454 kts 283°
2026-05-08 17:47 32.32498 -108.67370 34113 ft 454 kts 282°
2026-05-08 17:47 32.33178 -108.73553 34114 ft 454 kts 282°
2026-05-08 17:48 32.33715 -108.78467 33903 ft 454 kts 282°
2026-05-08 17:48 32.34118 -108.82175 33909 ft 453 kts 282°
2026-05-08 17:48 32.34919 -108.89532 33924 ft 453 kts 282°
2026-05-08 17:49 32.35722 -108.96912 33928 ft 453 kts 282°
2026-05-08 17:49 32.36522 -109.04329 33929 ft 454 kts 282°
2026-05-08 17:50 32.37316 -109.11697 33930 ft 453 kts 282°
2026-05-08 17:50 32.38111 -109.19134 33918 ft 453 kts 282°
2026-05-08 17:51 32.38892 -109.26514 33932 ft 453 kts 282°
2026-05-08 17:51 32.39672 -109.33909 33935 ft 454 kts 282°
2026-05-08 17:52 32.40446 -109.41297 33933 ft 454 kts 282°
2026-05-08 17:53 32.41606 -109.52420 33927 ft 454 kts 282°
2026-05-08 17:53 32.42382 -109.59857 33933 ft 454 kts 282°
2026-05-08 17:54 32.43141 -109.67238 33933 ft 454 kts 282°
2026-05-08 17:54 32.43887 -109.74684 33934 ft 453 kts 282°
2026-05-08 17:55 32.45320 -109.81843 33922 ft 446 kts 292°
2026-05-08 17:55 32.47152 -109.88828 33932 ft 445 kts 291°
2026-05-08 17:56 32.48978 -109.95866 33961 ft 445 kts 291°
2026-05-08 17:56 32.50789 -110.02858 33964 ft 445 kts 291°
2026-05-08 17:57 32.52602 -110.09847 33989 ft 445 kts 291°
2026-05-08 17:57 32.54415 -110.16880 33973 ft 445 kts 291°
2026-05-08 17:58 32.56207 -110.23870 33998 ft 445 kts 291°
2026-05-08 17:58 32.58006 -110.30898 34002 ft 445 kts 291°
2026-05-08 17:59 32.59809 -110.37918 34015 ft 444 kts 291°
2026-05-08 17:59 32.61600 -110.44897 34002 ft 444 kts 291°
2026-05-08 18:00 32.63391 -110.51937 34000 ft 444 kts 290°
2026-05-08 18:00 32.66050 -110.62443 34022 ft 444 kts 290°
2026-05-08 18:01 32.67832 -110.69487 34006 ft 444 kts 290°
2026-05-08 18:01 32.69596 -110.76464 34016 ft 444 kts 290°
2026-05-08 18:02 32.71070 -110.82324 33999 ft 444 kts 289°
2026-05-08 18:02 32.73124 -110.90517 34003 ft 443 kts 289°
2026-05-08 18:03 32.74886 -110.97555 34010 ft 443 kts 289°
2026-05-08 18:03 32.76627 -111.04560 34017 ft 443 kts 289°
2026-05-08 18:04 32.78370 -111.11567 34019 ft 443 kts 289°
2026-05-08 18:04 32.80110 -111.18559 34012 ft 442 kts 289°
2026-05-08 18:05 32.81857 -111.25608 34020 ft 443 kts 289°
2026-05-08 18:05 32.83581 -111.32603 33953 ft 442 kts 289°
2026-05-08 18:06 32.85311 -111.39620 33966 ft 442 kts 289°
2026-05-08 18:06 32.87036 -111.46629 33934 ft 442 kts 289°
2026-05-08 18:07 32.88761 -111.53679 33941 ft 442 kts 289°
2026-05-08 18:07 32.90475 -111.60678 33941 ft 442 kts 289°
2026-05-08 18:08 32.92178 -111.67682 33935 ft 442 kts 289°
2026-05-08 18:08 32.93895 -111.74731 33951 ft 442 kts 289°
2026-05-08 18:09 32.95589 -111.81733 33917 ft 442 kts 288°
2026-05-08 18:09 32.97285 -111.88750 33927 ft 442 kts 288°
2026-05-08 18:10 32.98980 -111.95771 33936 ft 442 kts 288°
2026-05-08 18:10 33.00750 -112.02814 33944 ft 441 kts 291°
2026-05-08 18:11 33.02880 -112.09629 33945 ft 440 kts 294°
2026-05-08 18:11 33.05155 -112.16409 33923 ft 440 kts 293°
2026-05-08 18:12 33.07358 -112.23203 33931 ft 440 kts 292°
2026-05-08 18:12 33.09504 -112.30073 33937 ft 441 kts 292°
2026-05-08 18:13 33.11625 -112.36914 33946 ft 441 kts 292°
2026-05-08 18:13 33.13759 -112.43753 33950 ft 441 kts 292°
2026-05-08 18:14 33.15914 -112.50643 33947 ft 441 kts 292°
2026-05-08 18:14 33.18042 -112.57487 33962 ft 441 kts 292°
2026-05-08 18:15 33.20174 -112.64368 33971 ft 441 kts 292°
2026-05-08 18:15 33.22300 -112.71199 33978 ft 441 kts 292°
2026-05-08 18:16 33.24436 -112.78091 33982 ft 441 kts 292°
2026-05-08 18:16 33.26555 -112.84953 33964 ft 441 kts 291°
2026-05-08 18:17 33.28666 -112.91818 33961 ft 441 kts 291°
2026-05-08 18:17 33.30770 -112.98700 33963 ft 441 kts 291°
2026-05-08 18:18 33.32883 -113.05605 33949 ft 441 kts 291°
2026-05-08 18:18 33.34992 -113.12483 33933 ft 441 kts 291°
2026-05-08 18:19 33.37082 -113.19352 33938 ft 441 kts 291°
2026-05-08 18:19 33.39183 -113.26260 33939 ft 441 kts 291°
2026-05-08 18:20 33.41274 -113.33125 33938 ft 440 kts 291°
2026-05-08 18:20 33.43371 -113.40045 33938 ft 440 kts 291°
2026-05-08 18:21 33.45445 -113.46915 33973 ft 440 kts 290°
2026-05-08 18:21 33.47513 -113.53790 33985 ft 440 kts 290°
2026-05-08 18:22 33.49242 -113.59534 33989 ft 440 kts 290°
2026-05-08 18:22 33.51319 -113.66446 33989 ft 439 kts 290°
2026-05-08 18:23 33.53374 -113.73309 33981 ft 439 kts 290°
2026-05-08 18:23 33.55439 -113.80215 33827 ft 442 kts 291°
2026-05-08 18:24 33.56478 -113.83698 33551 ft 443 kts 291°
2026-05-08 18:24 33.57514 -113.87180 33281 ft 444 kts 290°
2026-05-08 18:24 33.58555 -113.90679 33005 ft 445 kts 291°
2026-05-08 18:24 33.59588 -113.94146 32751 ft 447 kts 290°
2026-05-08 18:25 33.60638 -113.97684 32479 ft 449 kts 290°
2026-05-08 18:25 33.61690 -114.01232 32227 ft 449 kts 290°
2026-05-08 18:25 33.62723 -114.04724 31968 ft 448 kts 290°
2026-05-08 18:25 33.63766 -114.08258 31712 ft 446 kts 290°
2026-05-08 18:26 33.64805 -114.11784 31456 ft 445 kts 290°
2026-05-08 18:26 33.65826 -114.15251 31204 ft 444 kts 290°
2026-05-08 18:26 33.66859 -114.18758 30966 ft 442 kts 290°
2026-05-08 18:26 33.67871 -114.22190 30727 ft 441 kts 290°
2026-05-08 18:27 33.68895 -114.25666 30488 ft 440 kts 290°
2026-05-08 18:27 33.69570 -114.27957 30332 ft 439 kts 290°
2026-05-08 18:27 33.70932 -114.32591 30015 ft 437 kts 290°
2026-05-08 18:27 33.71932 -114.35996 29744 ft 436 kts 290°
2026-05-08 18:28 33.72939 -114.39438 29465 ft 435 kts 290°
2026-05-08 18:28 33.73941 -114.42875 29200 ft 433 kts 290°
2026-05-08 18:28 33.74938 -114.46292 28940 ft 431 kts 290°
2026-05-08 18:28 33.75916 -114.49649 28656 ft 430 kts 290°
2026-05-08 18:29 33.76902 -114.53043 28386 ft 428 kts 290°
2026-05-08 18:29 33.77896 -114.56416 28126 ft 427 kts 291°
2026-05-08 18:29 33.78945 -114.59757 27864 ft 425 kts 292°
2026-05-08 18:29 33.80029 -114.63061 27597 ft 423 kts 293°
2026-05-08 18:30 33.81109 -114.66295 27343 ft 422 kts 293°
2026-05-08 18:30 33.82203 -114.69576 27083 ft 420 kts 293°
2026-05-08 18:30 33.83279 -114.72835 26764 ft 416 kts 293°
2026-05-08 18:30 33.84333 -114.76071 26252 ft 413 kts 293°
2026-05-08 18:31 33.85358 -114.79245 25766 ft 410 kts 293°
2026-05-08 18:31 33.86389 -114.82453 25275 ft 408 kts 293°
2026-05-08 18:31 33.87412 -114.85644 24796 ft 406 kts 293°
2026-05-08 18:31 33.88419 -114.88780 24329 ft 405 kts 294°
2026-05-08 18:32 33.89438 -114.91955 23875 ft 403 kts 294°
2026-05-08 18:32 33.90438 -114.95068 23425 ft 402 kts 294°
2026-05-08 18:32 33.91450 -114.98220 22924 ft 401 kts 294°
2026-05-08 18:32 33.92438 -115.01307 22490 ft 397 kts 294°
2026-05-08 18:33 33.93426 -115.04403 22052 ft 394 kts 294°
2026-05-08 18:33 33.94399 -115.07459 21617 ft 390 kts 293°
2026-05-08 18:33 33.95162 -115.10589 21175 ft 390 kts 283°
2026-05-08 18:33 33.95399 -115.13861 20715 ft 390 kts 271°
2026-05-08 18:34 33.95095 -115.17121 20261 ft 390 kts 261°
2026-05-08 18:34 33.94580 -115.20283 19789 ft 388 kts 261°
2026-05-08 18:34 33.94061 -115.23474 19317 ft 386 kts 261°
2026-05-08 18:34 33.93544 -115.26656 18829 ft 385 kts 261°
2026-05-08 18:35 33.93032 -115.29810 18354 ft 383 kts 261°
2026-05-08 18:35 33.92522 -115.32950 17829 ft 381 kts 261°
2026-05-08 18:35 33.92014 -115.36058 17394 ft 376 kts 261°
2026-05-08 18:35 33.91515 -115.39107 16919 ft 373 kts 260°
2026-05-08 18:36 33.91015 -115.42168 16448 ft 370 kts 260°
2026-05-08 18:36 33.90518 -115.45208 15968 ft 367 kts 260°
2026-05-08 18:36 33.90030 -115.48181 15498 ft 364 kts 260°
2026-05-08 18:36 33.89541 -115.51168 15026 ft 362 kts 260°
2026-05-08 18:37 33.89051 -115.54145 14556 ft 360 kts 259°
2026-05-08 18:37 33.88561 -115.57099 14086 ft 358 kts 259°
2026-05-08 18:37 33.88078 -115.60007 13597 ft 356 kts 259°
2026-05-08 18:37 33.87826 -115.62959 13113 ft 353 kts 270°
2026-05-08 18:38 33.87834 -115.65914 12649 ft 349 kts 271°
2026-05-08 18:38 33.87840 -115.68800 12198 ft 346 kts 271°
2026-05-08 18:38 33.87843 -115.71694 11742 ft 344 kts 271°
2026-05-08 18:38 33.87844 -115.74567 11293 ft 341 kts 270°
2026-05-08 18:39 33.87844 -115.77381 10859 ft 338 kts 270°
2026-05-08 18:39 33.87845 -115.80214 10419 ft 336 kts 270°
2026-05-08 18:39 33.87844 -115.82997 10265 ft 324 kts 270°
2026-05-08 18:39 33.87841 -115.85625 10145 ft 312 kts 269°
2026-05-08 18:40 33.87836 -115.88194 9999 ft 301 kts 269°
2026-05-08 18:40 33.87830 -115.90695 9754 ft 296 kts 269°
2026-05-08 18:40 33.87826 -115.93150 9386 ft 295 kts 269°
2026-05-08 18:40 33.87592 -115.95599 9002 ft 293 kts 254°
2026-05-08 18:41 33.86843 -115.97845 8751 ft 287 kts 239°
2026-05-08 18:41 33.85806 -115.99870 8565 ft 286 kts 237°
2026-05-08 18:41 33.84761 -116.01908 8357 ft 284 kts 238°
2026-05-08 18:41 33.83732 -116.03925 8168 ft 280 kts 238°
2026-05-08 18:42 33.82739 -116.05874 8047 ft 270 kts 238°
2026-05-08 18:42 33.81764 -116.07782 7864 ft 263 kts 238°
2026-05-08 18:42 33.80811 -116.09645 7660 ft 259 kts 238°
2026-05-08 18:42 33.79876 -116.11464 7386 ft 258 kts 238°
2026-05-08 18:43 33.78937 -116.13289 7206 ft 252 kts 238°
2026-05-08 18:43 33.78031 -116.15055 7058 ft 244 kts 238°
2026-05-08 18:43 33.77145 -116.16779 6738 ft 240 kts 238°
2026-05-08 18:43 33.76277 -116.18468 6363 ft 240 kts 238°
2026-05-08 18:44 33.75399 -116.20181 5971 ft 239 kts 238°
2026-05-08 18:44 33.74529 -116.21873 5670 ft 236 kts 238°
2026-05-08 18:44 33.73687 -116.23505 5521 ft 224 kts 238°
2026-05-08 18:44 33.72867 -116.25090 5172 ft 223 kts 238°
2026-05-08 18:45 33.72081 -116.26660 4879 ft 221 kts 242°
2026-05-08 18:45 33.71489 -116.28362 4642 ft 221 kts 252°
2026-05-08 18:45 33.71145 -116.30169 4409 ft 224 kts 262°
2026-05-08 18:45 33.71060 -116.32055 4155 ft 228 kts 272°
2026-05-08 18:46 33.71243 -116.33941 3770 ft 223 kts 282°
2026-05-08 18:46 33.71664 -116.35655 3491 ft 209 kts 291°
2026-05-08 18:46 33.72233 -116.37220 3239 ft 201 kts 294°
2026-05-08 18:46 33.72795 -116.38738 3010 ft 195 kts 294°
2026-05-08 18:47 33.73318 -116.40160 2783 ft 180 kts 293°
2026-05-08 18:47 33.73815 -116.41512 2552 ft 175 kts 293°
2026-05-08 18:47 33.74468 -116.42709 2312 ft 166 kts 316°
2026-05-08 18:47 33.75347 -116.43555 2135 ft 158 kts 321°
2026-05-08 18:48 33.76200 -116.44374 1927 ft 155 kts 320°
2026-05-08 18:48 33.77018 -116.45212 1739 ft 153 kts 319°
2026-05-08 18:48 33.77814 -116.46056 1501 ft 152 kts 320°
2026-05-08 18:48 33.78619 -116.46893 1354 ft 153 kts 322°
2026-05-08 18:49 33.79464 -116.47666 1121 ft 152 kts 327°
2026-05-08 18:49 33.80304 -116.48405 901 ft 151 kts 325°
2026-05-08 18:49 33.81142 -116.49151 675 ft 150 kts 324°
2026-05-08 18:49 33.81980 -116.49886 482 ft 149 kts 323°
2026-05-08 18:50 33.82779 -116.50601 424 ft 129 kts 322°
2026-05-08 18:50 33.83266 -116.51032 449 ft 44 kts 324°
2026-05-08 18:50 33.83372 -116.51165 454 ft 16 kts 271°
2026-05-08 18:50 33.83310 -116.51264 454 ft 15 kts 192°
2026-05-08 18:51 33.83209 -116.51197 449 ft 19 kts 143°
2026-05-08 18:51 33.83097 -116.51096 437 ft 22 kts 143°
2026-05-08 18:51 33.82968 -116.50980 426 ft 24 kts 143°
2026-05-08 18:51 33.82836 -116.50855 428 ft 25 kts 142°
2026-05-08 18:52 33.82695 -116.50728 429 ft 25 kts 143°
2026-05-08 18:52 33.82546 -116.50596 420 ft 27 kts 143°
2026-05-08 18:52 33.82401 -116.50468 416 ft 21 kts 143°
2026-05-08 18:52 33.82310 -116.50428 412 ft 13 kts 206°
2026-05-08 18:53 33.82261 -116.50495 418 ft 10 kts 234°
2026-05-08 18:53 33.82219 -116.50564 416 ft 11 kts 234°
2026-05-08 18:53 33.82179 -116.50636 426 ft 3 kts 257°
2026-05-08 18:53 33.82188 -116.50656 426 ft 3 kts 311°
2026-05-08 18:54 33.82219 -116.50666 421 ft 7 kts 358°
2026-05-08 18:54 33.82247 -116.50665 427 ft 2 kts
2026-05-08 18:54 33.82251 -116.50664 422 ft 0 kts